,,,PA_Meas_PMT16A,,PR_Meas_QMR101_102,,RH_Meas_QMH101,,SR_Meas_QMS101,,TA_Meas_QMH101,,GenWind,,GenWind,
date,time,status,PA,status,PR,status,RH,status,SR,status,TA,status,DirAvg,status,SpdAvg,
2012-03-26, 00:00:04,VALID,1000.96,VALID,0,VALID,93.2263,VALID,0,VALID,24.2281,VALID,20,VALID,0,
2012-03-26, 00:01:04,VALID,1000.98,VALID,0,VALID,93.1043,VALID,0,VALID,24.2086,VALID,20,VALID,0,
2012-03-26, 00:02:04,VALID,1000.95,VALID,0,VALID,92.9745,VALID,0,VALID,24.1696,VALID,20,VALID,0,
2012-03-26, 00:03:04,VALID,1000.9,VALID,0,VALID,92.9898,VALID,0,VALID,24.15,VALID,20,VALID,0,
2012-03-26, 00:04:04,VALID,1000.95,VALID,0,VALID,92.9974,VALID,0,VALID,24.1519,VALID,20,VALID,0,
2012-03-26, 00:05:04,VALID,1000.95,VALID,0,VALID,93.028,VALID,0,VALID,24.1305,VALID,20,VALID,0,
2012-03-26, 00:06:04,VALID,1000.93,VALID,0,VALID,93.0585,VALID,0,VALID,24.1305,VALID,20,VALID,0,
2012-03-26, 00:07:04,VALID,1000.95,VALID,0,VALID,93.1271,VALID,0,VALID,24.111,VALID,20,VALID,0,
2012-03-26, 00:08:04,VALID,1000.96,VALID,0,VALID,93.15,VALID,0,VALID,24.111,VALID,20,VALID,0,
2012-03-26, 00:09:04,VALID,1000.99,VALID,0,VALID,93.2492,VALID,0,VALID,24.111,VALID,20,VALID,0,
2012-03-26, 00:10:04,VALID,1001,VALID,0,VALID,93.3484,VALID,0,VALID,24.1305,VALID,20,VALID,0,
2012-03-26, 00:11:04,VALID,1000.99,VALID,0,VALID,93.3713,VALID,0,VALID,24.1305,VALID,20,VALID,0,
2012-03-26, 00:12:04,VALID,1001,VALID,0,VALID,93.3789,VALID,0,VALID,24.15,VALID,20,VALID,0,
2012-03-26, 00:13:04,VALID,1000.99,VALID,0,VALID,93.3713,VALID,0,VALID,24.15,VALID,20,VALID,0,
2012-03-26, 00:14:04,VALID,1000.98,VALID,0,VALID,93.3713,VALID,0,VALID,24.15,VALID,20,VALID,0,
2012-03-26, 00:15:04,VALID,1000.93,VALID,0,VALID,93.2797,VALID,0,VALID,24.15,VALID,20,VALID,0,
2012-03-26, 00:16:04,VALID,1000.9,VALID,0,VALID,93.2187,VALID,0,VALID,24.1305,VALID,20,VALID,0,
2012-03-26, 00:17:04,VALID,1000.89,VALID,0,VALID,93.2645,VALID,0,VALID,24.111,VALID,54,VALID,0,
2012-03-26, 00:18:04,VALID,1000.86,VALID,0,VALID,93.2416,VALID,0,VALID,24.1305,VALID,54,VALID,0,
2012-03-26, 00:19:04,VALID,1000.83,VALID,0,VALID,93.1958,VALID,0,VALID,24.111,VALID,54,VALID,0,
2012-03-26, 00:20:04,VALID,1000.85,VALID,0,VALID,93.15,VALID,0,VALID,24.0897,VALID,54,VALID,0,
2012-03-26, 00:21:04,VALID,1000.85,VALID,0,VALID,93.0737,VALID,0,VALID,24.0915,VALID,54,VALID,0,
2012-03-26, 00:22:04,VALID,1000.84,VALID,0,VALID,93.0508,VALID,0,VALID,24.072,VALID,54,VALID,0,
2012-03-26, 00:23:04,VALID,1000.82,VALID,0,VALID,93.1119,VALID,0,VALID,24.072,VALID,54,VALID,0,
2012-03-26, 00:24:04,VALID,1000.8,VALID,0,VALID,93.2645,VALID,0,VALID,24.072,VALID,54,VALID,0,
2012-03-26, 00:25:04,VALID,1000.76,VALID,0,VALID,93.4171,VALID,0,VALID,24.111,VALID,54,VALID,0,
2012-03-26, 00:26:04,VALID,1000.72,VALID,0,VALID,93.5544,VALID,0,VALID,24.1305,VALID,54,VALID,0,
2012-03-26, 00:27:04,VALID,1000.69,VALID,0,VALID,93.5697,VALID,0,VALID,24.1891,VALID,85,VALID,0,
2012-03-26, 00:28:04,VALID,1000.69,VALID,0,VALID,93.562,VALID,0,VALID,24.2086,VALID,92,VALID,0,
2012-03-26, 00:29:04,VALID,1000.64,VALID,0,VALID,93.5391,VALID,0,VALID,24.2476,VALID,92,VALID,0,
2012-03-26, 00:30:04,VALID,1000.67,VALID,0,VALID,93.4552,VALID,0,VALID,24.2671,VALID,92,VALID,0,
2012-03-26, 00:31:04,VALID,1000.66,VALID,0,VALID,93.3484,VALID,0,VALID,24.2866,VALID,92,VALID,0,
2012-03-26, 00:32:04,VALID,1000.68,VALID,0,VALID,93.2797,VALID,0,VALID,24.2866,VALID,92,VALID,0,
2012-03-26, 00:33:04,VALID,1000.66,VALID,0,VALID,93.1958,VALID,0,VALID,24.2671,VALID,92,VALID,0,
2012-03-26, 00:34:04,VALID,1000.67,VALID,0,VALID,93.1729,VALID,0,VALID,24.2671,VALID,92,VALID,0,
2012-03-26, 00:35:04,VALID,1000.69,VALID,0,VALID,93.1424,VALID,0,VALID,24.2866,VALID,92,VALID,0,
2012-03-26, 00:36:04,VALID,1000.65,VALID,0,VALID,93.1424,VALID,0,VALID,24.2885,VALID,92,VALID,0,
2012-03-26, 00:37:04,VALID,1000.67,VALID,0,VALID,93.1805,VALID,0,VALID,24.2671,VALID,92,VALID,0,
2012-03-26, 00:38:04,VALID,1000.68,VALID,0,VALID,93.1882,VALID,0,VALID,24.2866,VALID,92,VALID,0,
2012-03-26, 00:39:04,VALID,1000.65,VALID,0,VALID,93.2111,VALID,0,VALID,24.2866,VALID,92,VALID,0,
2012-03-26, 00:40:04,VALID,1000.65,VALID,0,VALID,93.2568,VALID,0,VALID,24.2653,VALID,92,VALID,0,
2012-03-26, 00:41:04,VALID,1000.64,VALID,0,VALID,93.295,VALID,0,VALID,24.3062,VALID,92,VALID,0,
2012-03-26, 00:42:04,VALID,1000.64,VALID,0,VALID,93.2645,VALID,0,VALID,24.3062,VALID,92,VALID,0,
2012-03-26, 00:43:04,VALID,1000.63,VALID,0,VALID,93.3026,VALID,0,VALID,24.3043,VALID,92,VALID,0,
2012-03-26, 00:44:04,VALID,1000.65,VALID,0,VALID,93.295,VALID,0,VALID,24.3257,VALID,92,VALID,0,
2012-03-26, 00:45:04,VALID,1000.64,VALID,0,VALID,93.3255,VALID,0,VALID,24.3257,VALID,92,VALID,0,
2012-03-26, 00:46:04,VALID,1000.63,VALID,0,VALID,93.356,VALID,0,VALID,24.3257,VALID,92,VALID,0,
2012-03-26, 00:47:04,VALID,1000.61,VALID,0,VALID,93.356,VALID,0,VALID,24.3257,VALID,40,VALID,0,
2012-03-26, 00:48:04,VALID,1000.56,VALID,0,VALID,93.4247,VALID,0,VALID,24.3238,VALID,28,VALID,0,
2012-03-26, 00:49:04,VALID,1000.54,VALID,0,VALID,93.4705,VALID,0,VALID,24.3647,VALID,28,VALID,0,
2012-03-26, 00:50:04,VALID,1000.51,VALID,0,VALID,93.5163,VALID,0,VALID,24.3647,VALID,28,VALID,0,
2012-03-26, 00:51:04,VALID,1000.52,VALID,0,VALID,93.5315,VALID,0,VALID,24.3842,VALID,28,VALID,0,
2012-03-26, 00:52:04,VALID,1000.53,VALID,0,VALID,93.5086,VALID,0,VALID,24.4037,VALID,28,VALID,0,
2012-03-26, 00:53:04,VALID,1000.56,VALID,0,VALID,93.5086,VALID,0,VALID,24.3842,VALID,28,VALID,0,
2012-03-26, 00:54:04,VALID,1000.54,VALID,0,VALID,93.4552,VALID,0,VALID,24.3842,VALID,28,VALID,0,
2012-03-26, 00:55:04,VALID,1000.53,VALID,0,VALID,93.4323,VALID,0,VALID,24.3842,VALID,28,VALID,0,
2012-03-26, 00:56:04,VALID,1000.46,VALID,0,VALID,93.3789,VALID,0,VALID,24.3842,VALID,28,VALID,0,
2012-03-26, 00:57:04,VALID,1000.4,VALID,0,VALID,93.3331,VALID,0,VALID,24.3629,VALID,28,VALID,0,
2012-03-26, 00:58:04,VALID,1000.38,VALID,0,VALID,93.3484,VALID,0.104696,VALID,24.3824,VALID,28,VALID,0,
2012-03-26, 00:59:04,VALID,1000.32,VALID,0,VALID,93.3179,VALID,0,VALID,24.3842,VALID,28,VALID,0,
2012-03-26, 01:00:04,VALID,1000.33,VALID,0,VALID,93.3103,VALID,0,VALID,24.4037,VALID,28,VALID,0,
2012-03-26, 01:01:04,VALID,1000.35,VALID,0,VALID,93.3179,VALID,0,VALID,24.3824,VALID,28,VALID,0,
2012-03-26, 01:02:04,VALID,1000.32,VALID,0,VALID,93.3179,VALID,0,VALID,24.3824,VALID,28,VALID,0,
2012-03-26, 01:03:04,VALID,1000.32,VALID,0,VALID,93.3103,VALID,0,VALID,24.3824,VALID,28,VALID,0,
2012-03-26, 01:04:04,VALID,1000.31,VALID,0,VALID,93.2797,VALID,0,VALID,24.4037,VALID,28,VALID,0,
2012-03-26, 01:05:04,VALID,1000.31,VALID,0,VALID,93.2721,VALID,0,VALID,24.3842,VALID,28,VALID,0,
2012-03-26, 01:06:04,VALID,1000.32,VALID,0,VALID,93.2111,VALID,0,VALID,24.3842,VALID,28,VALID,0,
2012-03-26, 01:07:04,VALID,1000.3,VALID,0,VALID,93.2034,VALID,0,VALID,24.3842,VALID,102,VALID,0,
2012-03-26, 01:08:04,VALID,1000.29,VALID,0,VALID,93.2111,VALID,0,VALID,24.3824,VALID,102,VALID,0,
2012-03-26, 01:09:04,VALID,1000.3,VALID,0,VALID,93.2187,VALID,0,VALID,24.4037,VALID,102,VALID,0,
2012-03-26, 01:10:04,VALID,1000.32,VALID,0,VALID,93.2187,VALID,0,VALID,24.3824,VALID,102,VALID,0,
2012-03-26, 01:11:04,VALID,1000.36,VALID,0,VALID,93.2187,VALID,0,VALID,24.3842,VALID,102,VALID,0,
2012-03-26, 01:12:04,VALID,1000.36,VALID,0,VALID,93.1958,VALID,0,VALID,24.4037,VALID,102,VALID,0,
2012-03-26, 01:13:04,VALID,1000.35,VALID,0,VALID,93.2111,VALID,0,VALID,24.3824,VALID,102,VALID,0,
2012-03-26, 01:14:04,VALID,1000.3,VALID,0,VALID,93.1882,VALID,0,VALID,24.3824,VALID,102,VALID,0,
2012-03-26, 01:15:04,VALID,1000.25,VALID,0,VALID,93.1577,VALID,0,VALID,24.3824,VALID,102,VALID,0,
2012-03-26, 01:16:04,VALID,1000.24,VALID,0,VALID,93.15,VALID,0,VALID,24.3824,VALID,102,VALID,0,
2012-03-26, 01:17:04,VALID,1000.17,VALID,0,VALID,93.1577,VALID,0,VALID,24.4037,VALID,102,VALID,0,
2012-03-26, 01:18:04,VALID,1000.14,VALID,0,VALID,93.15,VALID,0,VALID,24.3629,VALID,107,VALID,0,
2012-03-26, 01:19:04,VALID,1000.09,VALID,0,VALID,93.1577,VALID,0,VALID,24.4037,VALID,98,VALID,0.553516,
2012-03-26, 01:20:04,VALID,1000.08,VALID,0,VALID,93.1577,VALID,0,VALID,24.4037,VALID,86,VALID,0.869922,
2012-03-26, 01:21:04,VALID,1000.06,VALID,0,VALID,93.1348,VALID,0,VALID,24.4019,VALID,83,VALID,0.855469,
2012-03-26, 01:22:04,VALID,1000.04,VALID,0,VALID,93.0966,VALID,0,VALID,24.4233,VALID,75,VALID,1.0918,
2012-03-26, 01:23:04,VALID,1000.03,VALID,0,VALID,93.0814,VALID,0,VALID,24.4428,VALID,82,VALID,0.822266,
2012-03-26, 01:24:04,VALID,1000.07,VALID,0,VALID,93.0356,VALID,0,VALID,24.4623,VALID,69,VALID,0.621875,
2012-03-26, 01:25:04,VALID,1000.13,VALID,0,VALID,92.9898,VALID,0,VALID,24.4623,VALID,69,VALID,0.235547,
2012-03-26, 01:26:04,VALID,1000.14,VALID,0,VALID,92.9745,VALID,0,VALID,24.4623,VALID,69,VALID,0.452734,
2012-03-26, 01:27:04,VALID,1000.12,VALID,0,VALID,92.9517,VALID,0,VALID,24.4409,VALID,47,VALID,0.601953,
2012-03-26, 01:28:04,VALID,1000.16,VALID,0,VALID,92.9517,VALID,0,VALID,24.5013,VALID,352,VALID,0.7,
2012-03-26, 01:29:04,VALID,1000.18,VALID,0,VALID,93.0051,VALID,0,VALID,24.4604,VALID,352,VALID,0.38125,
2012-03-26, 01:30:04,VALID,1000.16,VALID,0,VALID,93.0051,VALID,0,VALID,24.5013,VALID,352,VALID,0.236719,
2012-03-26, 01:31:04,VALID,1000.12,VALID,0,VALID,93.028,VALID,0,VALID,24.5013,VALID,352,VALID,0.231641,
2012-03-26, 01:32:04,VALID,1000.07,VALID,0,VALID,93.0356,VALID,0,VALID,24.4818,VALID,352,VALID,0.167969,
2012-03-26, 01:33:04,VALID,1000.07,VALID,0,VALID,93.0661,VALID,0,VALID,24.5013,VALID,352,VALID,0.194141,
2012-03-26, 01:34:04,VALID,1000.08,VALID,0,VALID,93.0661,VALID,0,VALID,24.4818,VALID,352,VALID,0.351172,
2012-03-26, 01:35:04,VALID,1000.1,VALID,0,VALID,93.0356,VALID,0,VALID,24.4818,VALID,28,VALID,0.824219,
2012-03-26, 01:36:04,VALID,1000.09,VALID,0,VALID,93.0356,VALID,0,VALID,24.4818,VALID,46,VALID,0.901953,
2012-03-26, 01:37:04,VALID,1000.14,VALID,0,VALID,93.0737,VALID,0,VALID,24.4604,VALID,52,VALID,1.06719,
2012-03-26, 01:38:04,VALID,1000.17,VALID,0,VALID,93.1424,VALID,0,VALID,24.4623,VALID,52,VALID,0.866406,
2012-03-26, 01:39:04,VALID,1000.16,VALID,0,VALID,93.1958,VALID,0,VALID,24.4623,VALID,52,VALID,1.02969,
2012-03-26, 01:40:04,VALID,1000.17,VALID,0,VALID,93.2416,VALID,0,VALID,24.4623,VALID,46,VALID,1.1582,
2012-03-26, 01:41:04,VALID,1000.13,VALID,0,VALID,93.3026,VALID,0,VALID,24.4837,VALID,50,VALID,0.891406,
2012-03-26, 01:42:04,VALID,1000.15,VALID,0,VALID,93.3179,VALID,0,VALID,24.4818,VALID,52,VALID,0.720703,
2012-03-26, 01:43:04,VALID,1000.17,VALID,0,VALID,93.3255,VALID,0,VALID,24.4604,VALID,52,VALID,0.808203,
2012-03-26, 01:44:04,VALID,1000.22,VALID,0,VALID,93.2874,VALID,0,VALID,24.4818,VALID,52,VALID,0.551953,
2012-03-26, 01:45:04,VALID,1000.25,VALID,0,VALID,93.2645,VALID,0,VALID,24.5013,VALID,52,VALID,0.284375,
2012-03-26, 01:46:04,VALID,1000.28,VALID,0,VALID,93.2492,VALID,0,VALID,24.48,VALID,52,VALID,0,
2012-03-26, 01:47:04,VALID,1000.27,VALID,0,VALID,93.1958,VALID,0,VALID,24.5013,VALID,52,VALID,0,
2012-03-26, 01:48:04,VALID,1000.25,VALID,0.5,VALID,93.2187,VALID,0,VALID,24.5209,VALID,52,VALID,0.323438,
2012-03-26, 01:49:04,VALID,1000.23,VALID,0,VALID,93.3026,VALID,0,VALID,24.5209,VALID,52,VALID,0.167187,
2012-03-26, 01:50:04,VALID,1000.19,VALID,0,VALID,93.3484,VALID,0,VALID,24.5404,VALID,52,VALID,0,
2012-03-26, 01:51:04,VALID,1000.15,VALID,0,VALID,93.356,VALID,0,VALID,24.519,VALID,52,VALID,0.0578125,
2012-03-26, 01:52:04,VALID,1000.16,VALID,0,VALID,93.3866,VALID,0,VALID,24.5599,VALID,52,VALID,0,
2012-03-26, 01:53:04,VALID,1000.14,VALID,0.5,VALID,93.3789,VALID,0,VALID,24.5404,VALID,52,VALID,0,
2012-03-26, 01:54:04,VALID,1000.17,VALID,0,VALID,93.4247,VALID,0,VALID,24.5599,VALID,280,VALID,0.644531,
2012-03-26, 01:55:04,VALID,1000.17,VALID,0,VALID,93.501,VALID,0,VALID,24.5599,VALID,280,VALID,0.461328,
2012-03-26, 01:56:04,VALID,1000.15,VALID,0,VALID,93.501,VALID,0,VALID,24.558,VALID,280,VALID,0.214453,
2012-03-26, 01:57:04,VALID,1000.15,VALID,0,VALID,93.5391,VALID,0,VALID,24.5775,VALID,280,VALID,0,
2012-03-26, 01:58:04,VALID,1000.12,VALID,0,VALID,93.5544,VALID,0,VALID,24.5989,VALID,280,VALID,0.0320312,
2012-03-26, 01:59:04,VALID,1000.09,VALID,0.5,VALID,93.5315,VALID,0,VALID,24.5989,VALID,153,VALID,0.94375,
2012-03-26, 02:00:04,VALID,1000.08,VALID,0,VALID,93.4628,VALID,0,VALID,24.558,VALID,153,VALID,0.732031,
2012-03-26, 02:01:04,VALID,1000.08,VALID,0,VALID,93.3789,VALID,0,VALID,24.5989,VALID,156,VALID,0.957422,
2012-03-26, 02:02:04,VALID,1000.06,VALID,0.5,VALID,93.4628,VALID,0,VALID,24.5971,VALID,181,VALID,1.46094,
2012-03-26, 02:03:04,VALID,1000.05,VALID,0,VALID,93.5544,VALID,0,VALID,24.6184,VALID,193,VALID,1.20742,
2012-03-26, 02:04:04,VALID,1000.04,VALID,0.5,VALID,93.5926,VALID,0,VALID,24.6166,VALID,193,VALID,1.28477,
2012-03-26, 02:05:04,VALID,1000.06,VALID,0,VALID,93.6688,VALID,0,VALID,24.6575,VALID,182,VALID,1.49023,
2012-03-26, 02:06:04,VALID,1000.07,VALID,0,VALID,93.6536,VALID,0,VALID,24.638,VALID,183,VALID,1.13633,
2012-03-26, 02:07:04,VALID,1000.08,VALID,0,VALID,93.6765,VALID,0,VALID,24.6575,VALID,206,VALID,1.50352,
2012-03-26, 02:08:04,VALID,1000.07,VALID,0,VALID,93.6765,VALID,0,VALID,24.6575,VALID,206,VALID,1.52266,
2012-03-26, 02:09:04,VALID,1000.05,VALID,0,VALID,93.7223,VALID,0,VALID,24.677,VALID,202,VALID,0.791016,
2012-03-26, 02:10:04,VALID,1000.03,VALID,0,VALID,93.7223,VALID,0,VALID,24.677,VALID,199,VALID,0.810156,
2012-03-26, 02:11:04,VALID,1000.03,VALID,0,VALID,93.7223,VALID,0,VALID,24.677,VALID,199,VALID,0.485156,
2012-03-26, 02:12:04,VALID,1000.04,VALID,0,VALID,93.7299,VALID,0,VALID,24.677,VALID,201,VALID,0.288281,
2012-03-26, 02:13:04,VALID,1000.05,VALID,0,VALID,93.7528,VALID,0,VALID,24.677,VALID,5,VALID,1.34492,
2012-03-26, 02:14:04,VALID,1000.04,VALID,0.5,VALID,93.7299,VALID,0,VALID,24.6575,VALID,2,VALID,1.52969,
2012-03-26, 02:15:04,VALID,1000.08,VALID,0,VALID,93.6765,VALID,0,VALID,24.6184,VALID,2,VALID,1.21523,
2012-03-26, 02:16:04,VALID,1000.07,VALID,0,VALID,93.6917,VALID,0,VALID,24.5989,VALID,356,VALID,0.960938,
2012-03-26, 02:17:04,VALID,1000.05,VALID,0,VALID,93.7451,VALID,0,VALID,24.5794,VALID,356,VALID,0.539844,
2012-03-26, 02:18:04,VALID,1000.07,VALID,0,VALID,93.7833,VALID,0,VALID,24.5794,VALID,356,VALID,0.420312,
2012-03-26, 02:19:04,VALID,1000.06,VALID,0,VALID,93.8367,VALID,0,VALID,24.5385,VALID,356,VALID,0,
2012-03-26, 02:20:04,VALID,1000.02,VALID,0,VALID,93.8443,VALID,0,VALID,24.5404,VALID,356,VALID,0,
2012-03-26, 02:21:04,VALID,1000.02,VALID,0,VALID,93.8596,VALID,0,VALID,24.5404,VALID,356,VALID,0,
2012-03-26, 02:22:04,VALID,1000.01,VALID,0,VALID,93.9206,VALID,0,VALID,24.5404,VALID,356,VALID,0,
2012-03-26, 02:23:04,VALID,999.989,VALID,0,VALID,93.9435,VALID,0,VALID,24.5404,VALID,356,VALID,0,
2012-03-26, 02:24:04,VALID,999.951,VALID,0,VALID,93.913,VALID,0,VALID,24.5404,VALID,356,VALID,0,
2012-03-26, 02:25:04,VALID,999.957,VALID,0,VALID,93.8901,VALID,0,VALID,24.5209,VALID,356,VALID,0,
2012-03-26, 02:26:04,VALID,999.978,VALID,0,VALID,93.852,VALID,0,VALID,24.48,VALID,356,VALID,0,
2012-03-26, 02:27:04,VALID,999.993,VALID,0,VALID,93.8443,VALID,0,VALID,24.5013,VALID,356,VALID,0,
2012-03-26, 02:28:04,VALID,1000,VALID,0,VALID,93.8138,VALID,0,VALID,24.48,VALID,356,VALID,0,
2012-03-26, 02:29:04,VALID,999.981,VALID,0,VALID,93.8214,VALID,0,VALID,24.5013,VALID,356,VALID,0,
2012-03-26, 02:30:04,VALID,999.979,VALID,0,VALID,93.8901,VALID,0,VALID,24.4995,VALID,150,VALID,0.755078,
2012-03-26, 02:31:04,VALID,999.983,VALID,0,VALID,93.9206,VALID,0,VALID,24.5209,VALID,182,VALID,0.716797,
2012-03-26, 02:32:04,VALID,999.971,VALID,0,VALID,93.9435,VALID,0,VALID,24.5599,VALID,182,VALID,0.487891,
2012-03-26, 02:33:04,VALID,999.999,VALID,0,VALID,93.9511,VALID,0,VALID,24.5794,VALID,182,VALID,0.0921875,
2012-03-26, 02:34:04,VALID,999.993,VALID,0,VALID,93.9283,VALID,0,VALID,24.5794,VALID,182,VALID,0,
2012-03-26, 02:35:04,VALID,999.967,VALID,0,VALID,93.8443,VALID,0,VALID,24.5794,VALID,182,VALID,0,
2012-03-26, 02:36:04,VALID,999.957,VALID,0,VALID,93.8672,VALID,0,VALID,24.558,VALID,131,VALID,0.346875,
2012-03-26, 02:37:04,VALID,999.939,VALID,0,VALID,93.8901,VALID,0,VALID,24.5989,VALID,131,VALID,0,
2012-03-26, 02:38:04,VALID,999.951,VALID,0,VALID,93.8825,VALID,0,VALID,24.5989,VALID,131,VALID,0,
2012-03-26, 02:39:04,VALID,999.946,VALID,0,VALID,93.8596,VALID,0,VALID,24.5971,VALID,131,VALID,0,
2012-03-26, 02:40:04,VALID,999.945,VALID,0,VALID,93.852,VALID,0,VALID,24.6184,VALID,131,VALID,0,
2012-03-26, 02:41:04,VALID,999.964,VALID,0,VALID,93.8291,VALID,0,VALID,24.6184,VALID,131,VALID,0.107031,
2012-03-26, 02:42:04,VALID,999.988,VALID,0,VALID,93.7909,VALID,0,VALID,24.638,VALID,131,VALID,0,
2012-03-26, 02:43:04,VALID,999.992,VALID,0,VALID,93.7833,VALID,0,VALID,24.6184,VALID,131,VALID,0.233984,
2012-03-26, 02:44:04,VALID,1000,VALID,0,VALID,93.7375,VALID,0,VALID,24.6166,VALID,131,VALID,0.484766,
2012-03-26, 02:45:04,VALID,1000.01,VALID,0,VALID,93.6307,VALID,0,VALID,24.5775,VALID,131,VALID,0.446484,
2012-03-26, 02:46:04,VALID,999.996,VALID,0,VALID,93.6307,VALID,0,VALID,24.6184,VALID,131,VALID,0.548437,
2012-03-26, 02:47:04,VALID,1000.01,VALID,0,VALID,93.646,VALID,0,VALID,24.638,VALID,120,VALID,0.714844,
2012-03-26, 02:48:04,VALID,1000.02,VALID,0,VALID,93.7223,VALID,0,VALID,24.6184,VALID,104,VALID,0.711328,
2012-03-26, 02:49:04,VALID,1000.02,VALID,0,VALID,93.7909,VALID,0,VALID,24.6575,VALID,70,VALID,0.604297,
2012-03-26, 02:50:04,VALID,1000.02,VALID,0,VALID,93.852,VALID,0,VALID,24.6575,VALID,68,VALID,0.706641,
2012-03-26, 02:51:04,VALID,1000.02,VALID,0,VALID,93.852,VALID,0,VALID,24.6789,VALID,68,VALID,0.329688,
2012-03-26, 02:52:04,VALID,999.995,VALID,0,VALID,93.8672,VALID,0,VALID,24.6575,VALID,68,VALID,0.0351563,
2012-03-26, 02:53:04,VALID,1000.01,VALID,0,VALID,93.8748,VALID,0,VALID,24.6575,VALID,68,VALID,0,
2012-03-26, 02:54:04,VALID,999.973,VALID,0,VALID,93.8825,VALID,0,VALID,24.6789,VALID,68,VALID,0.187891,
2012-03-26, 02:55:04,VALID,999.971,VALID,0,VALID,93.8901,VALID,0,VALID,24.6575,VALID,68,VALID,0.330469,
2012-03-26, 02:56:04,VALID,999.969,VALID,0,VALID,93.913,VALID,0,VALID,24.6575,VALID,68,VALID,0.274219,
2012-03-26, 02:57:04,VALID,999.969,VALID,0,VALID,93.913,VALID,0,VALID,24.6575,VALID,68,VALID,0.133984,
2012-03-26, 02:58:04,VALID,999.974,VALID,0,VALID,93.8977,VALID,0,VALID,24.6575,VALID,68,VALID,0.00117188,
2012-03-26, 02:59:04,VALID,1000.02,VALID,0,VALID,93.8825,VALID,0,VALID,24.6575,VALID,68,VALID,0,
2012-03-26, 03:00:04,VALID,1000.03,VALID,0,VALID,93.8901,VALID,0,VALID,24.6166,VALID,68,VALID,0.271875,
2012-03-26, 03:01:04,VALID,1000.04,VALID,0,VALID,93.8977,VALID,0,VALID,24.6575,VALID,68,VALID,0.525,
2012-03-26, 03:02:04,VALID,1000.03,VALID,0,VALID,93.913,VALID,0,VALID,24.6575,VALID,101,VALID,0.504687,
2012-03-26, 03:03:04,VALID,1000.05,VALID,0,VALID,93.9206,VALID,0,VALID,24.6361,VALID,135,VALID,0.814062,
2012-03-26, 03:04:04,VALID,1000.05,VALID,0,VALID,93.8977,VALID,0,VALID,24.638,VALID,169,VALID,1.23125,
2012-03-26, 03:05:04,VALID,1000.02,VALID,0,VALID,93.8825,VALID,0,VALID,24.6575,VALID,157,VALID,1.58203,
2012-03-26, 03:06:04,VALID,1000.04,VALID,0,VALID,93.852,VALID,0,VALID,24.638,VALID,153,VALID,1.20195,
2012-03-26, 03:07:04,VALID,1000.07,VALID,0,VALID,93.8138,VALID,0,VALID,24.6575,VALID,149,VALID,1.54805,
2012-03-26, 03:08:04,VALID,1000.11,VALID,0,VALID,93.8291,VALID,0,VALID,24.6575,VALID,146,VALID,1.16406,
2012-03-26, 03:09:04,VALID,1000.11,VALID,0,VALID,93.7985,VALID,0,VALID,24.677,VALID,146,VALID,0.914063,
2012-03-26, 03:10:04,VALID,1000.15,VALID,0,VALID,93.8138,VALID,0,VALID,24.677,VALID,154,VALID,0.932813,
2012-03-26, 03:11:04,VALID,1000.1,VALID,0,VALID,93.8596,VALID,0,VALID,24.677,VALID,157,VALID,0.970703,
2012-03-26, 03:12:04,VALID,1000.09,VALID,0,VALID,93.9206,VALID,0,VALID,24.6751,VALID,147,VALID,1.08125,
2012-03-26, 03:13:04,VALID,1000.08,VALID,0,VALID,93.9359,VALID,0,VALID,24.6965,VALID,137,VALID,1.26211,
2012-03-26, 03:14:04,VALID,1000.08,VALID,0,VALID,93.9054,VALID,0,VALID,24.6965,VALID,132,VALID,1.36719,
2012-03-26, 03:15:04,VALID,1000.1,VALID,0,VALID,93.8977,VALID,0,VALID,24.716,VALID,132,VALID,1.13398,
2012-03-26, 03:16:04,VALID,1000.07,VALID,0,VALID,93.8748,VALID,0,VALID,24.677,VALID,132,VALID,1.04727,
2012-03-26, 03:17:04,VALID,1000.06,VALID,0,VALID,93.8748,VALID,0,VALID,24.677,VALID,132,VALID,1.50586,
2012-03-26, 03:18:04,VALID,1000.04,VALID,0,VALID,93.8901,VALID,0,VALID,24.6751,VALID,130,VALID,1.33867,
2012-03-26, 03:19:04,VALID,1000.05,VALID,0,VALID,93.8825,VALID,0,VALID,24.677,VALID,118,VALID,1.07852,
2012-03-26, 03:20:04,VALID,1000.06,VALID,0,VALID,93.852,VALID,0,VALID,24.6575,VALID,108,VALID,1.25859,
2012-03-26, 03:21:04,VALID,1000.06,VALID,0,VALID,93.7833,VALID,0,VALID,24.638,VALID,108,VALID,1.16797,
2012-03-26, 03:22:04,VALID,1000.04,VALID,0,VALID,93.7909,VALID,0,VALID,24.5989,VALID,108,VALID,0.907812,
2012-03-26, 03:23:04,VALID,1000.05,VALID,0,VALID,93.7528,VALID,0,VALID,24.5794,VALID,108,VALID,0.635547,
2012-03-26, 03:24:04,VALID,1000.02,VALID,0,VALID,93.7528,VALID,0,VALID,24.5794,VALID,108,VALID,0.583984,
2012-03-26, 03:25:04,VALID,1000.02,VALID,0,VALID,93.768,VALID,0,VALID,24.5385,VALID,108,VALID,0.550781,
2012-03-26, 03:26:04,VALID,1000.02,VALID,0,VALID,93.8214,VALID,0,VALID,24.5404,VALID,119,VALID,0.65,
2012-03-26, 03:27:04,VALID,999.983,VALID,0,VALID,93.8443,VALID,0,VALID,24.519,VALID,133,VALID,0.820703,
2012-03-26, 03:28:04,VALID,999.986,VALID,0,VALID,93.8672,VALID,0,VALID,24.4995,VALID,133,VALID,0.747266,
2012-03-26, 03:29:04,VALID,999.999,VALID,0,VALID,93.8825,VALID,0,VALID,24.5013,VALID,133,VALID,0.650781,
2012-03-26, 03:30:04,VALID,1000.05,VALID,0,VALID,93.9206,VALID,0,VALID,24.5209,VALID,133,VALID,0.321875,
2012-03-26, 03:31:04,VALID,1000.05,VALID,0,VALID,93.8901,VALID,0,VALID,24.5013,VALID,133,VALID,0.26875,
2012-03-26, 03:32:04,VALID,1000.08,VALID,0,VALID,93.8672,VALID,0,VALID,24.4604,VALID,133,VALID,0.421094,
2012-03-26, 03:33:04,VALID,1000.1,VALID,0,VALID,93.9359,VALID,0,VALID,24.4623,VALID,114,VALID,0.681641,
2012-03-26, 03:34:04,VALID,1000.08,VALID,0,VALID,93.9511,VALID,0,VALID,24.4409,VALID,97,VALID,0.699609,
2012-03-26, 03:35:04,VALID,1000.13,VALID,0,VALID,93.9817,VALID,0,VALID,24.4428,VALID,97,VALID,0.512891,
2012-03-26, 03:36:04,VALID,1000.16,VALID,0,VALID,94.0198,VALID,0,VALID,24.4428,VALID,97,VALID,0.555859,
2012-03-26, 03:37:04,VALID,1000.19,VALID,0,VALID,93.9969,VALID,0,VALID,24.4233,VALID,97,VALID,0.389453,
2012-03-26, 03:38:04,VALID,1000.22,VALID,0,VALID,93.9817,VALID,0,VALID,24.4233,VALID,97,VALID,0.594531,
2012-03-26, 03:39:04,VALID,1000.21,VALID,0,VALID,93.974,VALID,0,VALID,24.3842,VALID,97,VALID,0.151172,
2012-03-26, 03:40:04,VALID,1000.24,VALID,0,VALID,93.9435,VALID,0,VALID,24.3842,VALID,97,VALID,0,
2012-03-26, 03:41:04,VALID,1000.24,VALID,0,VALID,93.9664,VALID,0,VALID,24.3647,VALID,97,VALID,0.187109,
2012-03-26, 03:42:04,VALID,1000.22,VALID,0,VALID,93.9511,VALID,0,VALID,24.3238,VALID,97,VALID,0.344922,
2012-03-26, 03:43:04,VALID,1000.25,VALID,0,VALID,93.9511,VALID,0,VALID,24.3452,VALID,97,VALID,0.303906,
2012-03-26, 03:44:04,VALID,1000.22,VALID,0,VALID,93.9511,VALID,0,VALID,24.3257,VALID,97,VALID,0.395312,
2012-03-26, 03:45:04,VALID,1000.26,VALID,0,VALID,93.9511,VALID,0,VALID,24.2848,VALID,97,VALID,0.322656,
2012-03-26, 03:46:04,VALID,1000.25,VALID,0,VALID,93.9206,VALID,0,VALID,24.2866,VALID,97,VALID,0,
2012-03-26, 03:47:04,VALID,1000.24,VALID,0,VALID,93.913,VALID,0,VALID,24.2653,VALID,97,VALID,0,
2012-03-26, 03:48:04,VALID,1000.26,VALID,0,VALID,93.9359,VALID,0,VALID,24.2458,VALID,97,VALID,0,
2012-03-26, 03:49:04,VALID,1000.3,VALID,0,VALID,93.9664,VALID,0,VALID,24.2671,VALID,97,VALID,0,
2012-03-26, 03:50:04,VALID,1000.28,VALID,0,VALID,94.0045,VALID,0,VALID,24.2671,VALID,97,VALID,0,
2012-03-26, 03:51:04,VALID,1000.3,VALID,0,VALID,94.058,VALID,0,VALID,24.2866,VALID,97,VALID,0,
2012-03-26, 03:52:04,VALID,1000.29,VALID,0,VALID,94.1114,VALID,0,VALID,24.2866,VALID,97,VALID,0,
2012-03-26, 03:53:04,VALID,1000.24,VALID,0,VALID,94.1266,VALID,0,VALID,24.2866,VALID,97,VALID,0,